www.pogodaiklimat.ru

Погода и климат >> Архив погоды >> Россия >> Ставропольский край >> Арзгир


ПОГОДА в Арзгире

  • Прогноз погоды в Арзгире
  • Монитор погоды в Арзгире

АРХИВ ПОГОДЫ в Арзгире

Время (UTC), дата Ветер
(напр.,м/с)
 
Видим.   Явления Облачность Т
(С)
Тd
(С)
f
(%)
Тe
(С)
Тes
(С)
Комфортность P
(гПа)
Po
(гПа)
Тmin
(С)
Tmax
(С)
R
(мм)
R24
(мм)
S
(см)
15 13.06 В 4
{10}
20 км 6/6 600 м
[Sc]
+33.5 +0.3 12 +30 +31 жарко 1009.2 997.7 +34.8
18 13.06 З 1 20 км 9/5 300 м
[Cb cap Ac cuf Ci fib]
+28.5 +3.8 21 +27 +27 жарко 1010.7 999.1
21 13.06 ЮЗ 2 20 км 9/6 300 м
[Cb cap Ac As]
+23.5 +4.6 29 +23 +23 комфорт 1011.2 999.3
00 14.06 СВ 6-10
{11}
20 км 9/6 300 м
[Cb cap Ac As]
+24.4 +10.4 41 +25 +25 комфорт 1012.2 1000.4
03 14.06 СВ 9-14
{14}
20 км 8/0
[Cs]
+21.4 +9.5 47 +23 +23 комфорт 1014.3 1002.3 +18.6
06 14.06 СВ 8-12
{14}
20 км 4/0
[Ci fib]
+24.5 +8.5 36 +25 +27 комфорт 1015.8 1003.9
09 14.06 СВ 6
{12}
20 км 6/0 2000 м
[Ac cast Ci fib]
+28.0 +8.5 29 +28 +33 жарко 1016.1 1004.4
12 14.06 В 6-10
{12}
20 км ясно +30.6 +6.7 22 +29 +34 жарко 1014.6 1003.0
15 14.06 СВ 6
{10}
20 км ясно +30.2 +3.7 19 +28 +29 жарко 1014.6 1002.9 +31.1
18 14.06 ЮВ 3 20 км ясно +22.7 +10.6 46 +25 +25 комфорт 1015.6 1003.7
21 14.06 В 1 20 км 3/0 2000 м
[Ac cast]
+19.1 +12.8 67 +21 +21 комфорт 1015.6 1003.6
00 15.06 ЮВ 3 20 км 3/0 2000 м
[Ac cast]
+18.0 +13.5 75 +18 +18 1015.2 1003.1
03 15.06 В 2 20 км 3/0 2000 м
[Ac cast]
+18.7 +13.7 73 +20 +21 1016.0 1003.9 +15.0
06 15.06 В 4 20 км ясно +25.7 +7.6 32 +26 +34 жарко 1015.1 1003.2
09 15.06 ЮВ 3 20 км ясно +30.3 +4.1 19 +28 +44 жарко 1013.5 1001.8
12 15.06 В 3 20 км 3/0
[Ci fib]
+32.9 +3.7 16 +30 +40 жарко 1011.2 999.7
15 15.06 СВ 5 20 км 3/0
[Ci fib]
+31.8 +3.0 16 +29 +30 жарко 1010.6 999.0 +33.1
18 15.06 ЮВ 5 20 км 4/0
[Ci fib]
+25.4 +4.6 26 +25 +25 комфорт 1011.4 999.6
21 15.06 ЮВ 7-10
{10}
20 км 3/0
[Ci fib]
+23.0 +7.8 38 +24 +24 комфорт 1011.1 999.2
00 16.06 СЗ 1
{10}
20 км 3/0
[Ci fib]
+19.0 +8.1 49 +21 +21 комфорт 1010.8 998.8
03 16.06 Ю 2 20 км 6/0 2000 м
[Ac trans]
+20.2 +8.3 46 +22 +23 комфорт 1010.6 998.6 +14.9
06 16.06 С 1 20 км 4/0 2000 м
[Ac cast]
+28.6 +5.2 23 +27 +37 жарко 1010.3 998.6
09 16.06 В 3 20 км 9/6 300 м
[Cb cap Ac cast]
+31.0 +2.6 16 +28 +31 жарко 1009.4 997.8
12 16.06 В 2 20 км 3/0 2000 м
[Ac cast]
+34.1 +1.3 13 +31 +41 жарко 1007.8 996.4
15 16.06 В 2 20 км 3/0 2000 м
[Ac cast]
+33.5 -0.6 11 +30 +31 жарко 1007.6 996.1 +34.5
18 16.06 ЮВ 4 20 км 4/0 2000 м
[Ac cast]
+28.2 +0.8 17 +26 +26 жарко 1007.1 995.5
21 16.06 ЮВ 5 20 км 4/0 2000 м
[Ac cast]
+25.4 +8.1 33 +26 +26 жарко 1006.3 994.5
00 17.06 З 2 20 км 3/0 2000 м
[Ac cast]
+19.4 +6.4 43 +21 +21 комфорт 1006.8 994.8
03 17.06 СВ 4 20 км 3/0 2000 м
[Ac cast]
+21.6 +13.1 58 +24 +25 комфорт 1008.6 996.7 +18.6
06 17.06 СВ 3 20 км 3/0 2000 м
[Ac cast]
+27.0 +11.9 39 +28 +36 жарко 1008.9 997.2
09 17.06 С 2 20 км 4/0 2000 м
[Ac As]
+31.3 +9.4 26 +31 +45 жарко 1008.5 997.0
12 17.06 СВ 4 20 км 4/4 1000 м
[Cu hum]
+34.2 +7.2 19 +32 +37 жарко 1007.2 995.8
15 17.06 С 5
{11}
20 км 4/4 600 м
[Cb cap]
+32.6 +9.0 23 +31 +32 жарко 1007.9 996.4 +34.6
18 17.06 СВ 3
{11}
20 км 4/0 2000 м
[Ac cuf]
+27.6 +8.7 30 +27 +27 жарко 1009.8 998.1
21 17.06 В 2 20 км 4/0 2000 м
[Ac lent]
+21.2 +13.3 61 +24 +24 комфорт 1010.8 998.8
00 18.06 СВ 1 20 км 4/0 2000 м
[Ac lent]
+21.5 +11.5 53 +24 +24 комфорт 1010.4 998.5
03 18.06 С 2 20 км ясно +20.6 +11.2 55 +23 +25 комфорт 1011.2 999.2 +19.0
06 18.06 СВ 3 20 км ясно +27.9 +12.7 39 +29 +39 жарко 1011.2 999.5
09 18.06 З 2 20 км ясно +31.4 +9.3 25 +31 +50 жарко 1010.2 998.7
12 18.06 С 2 20 км 3/0
[Ci fib]
+34.0 +7.1 19 +32 +44 жарко 1008.7 997.3
15 18.06 С 2 20 км 3/0
[Ci fib]
+33.6 +8.6 21 +32 +34 жарко 1008.0 996.5 +34.7
18 18.06 ЮВ 2 20 км ясно +26.7 +7.7 30 +27 +27 жарко 1009.1 997.4
21 18.06 В 2 20 км ясно +26.0 +8.0 32 +26 +26 жарко 1008.9 997.2
00 19.06 ЮЗ 2 20 км ясно +18.9 +8.2 50 +20 +20 1009.1 997.1
03 19.06 штиль 0 20 км ясно +21.6 +9.0 44 +23 +25 комфорт 1009.7 997.7 +17.8
06 19.06 СВ 2 20 км ясно +30.4 +10.5 29 +30 +42 жарко 1009.2 997.7
09 19.06 СЗ 2 20 км ясно +35.1 +5.9 16 +33 +52 опасность
солнечного
удара
1008.5 997.1
12 19.06 СЗ 2 20 км 6/3 300 м
[Cb cap Ac cast]
+35.0 +5.9 16 +32 +39 жарко 1007.4 996.0
15 19.06 С 3 20 км 6/3 300 м
[Cb cap Ac cast]
+35.7 +3.9 14 +33 +34 жарко 1006.9 995.5 +36.9
18 19.06 СВ 1 20 км 6/3 300 м
[Cb cap Ac cast]
+29.8 +5.5 22 +28 +28 жарко 1007.9 996.3
21 19.06 СВ 2
{10}
20 км 6/0 2000 м
[Ac cast]
+27.5 +6.0 25 +27 +27 жарко 1008.6 996.9
00 20.06 С 1 20 км 4/0 2000 м
[Ac cast]
+22.3 +6.2 35 +23 +23 комфорт 1008.7 996.8
03 20.06 С 1 20 км 3/0 2000 м
[Ac cast]
+23.6 +8.4 38 +24 +26 комфорт 1009.3 997.5 +19.8
06 20.06 СВ 4 20 км 4/0
[Ci fib]
+30.5 +9.8 28 +30 +38 жарко 1009.2 997.6
09 20.06 В 4 20 км 6/4 600 м
[Cb cap Ac cast]
+35.3 +7.3 18 +33 +39 жарко 1008.1 996.7
12 20.06 В 3
{10}
20 км 8/5 300 м
[Cb cap Ac lent Ci fib]
+35.1 +5.6 16 +33 +36 жарко 1006.8 995.5

 

Местоположение метеостанции Арзгир (Ставропольский край, Россия): широта 45.40 долгота 44.20 высота над уровнем моря 103 м.

В архиве по умолчанию представлена погода в Арзгире за последнюю неделю. Архивные данные за месяц целиком и за предыдущие месяцы, начиная с января 2011 года, Вы можете получить, выбрав интересующий диапазон дат из раскрывающегося списка и нажав кнопку "Ввод!".


*Определитесь, кто Вы:
робот инопланетянин человек

Внимание! Время в таблицах - всемирное. Для получения местного времени необходимо прибавить поправку, которая равна 3 ч.

Смотрите также архив погоды в соседних городах и на ближайших метеорологических станциях:

Погода в Ики-Буруле (Калмыкия, Россия) (56 км)
Погода в Благодарном (Ставропольский край, Россия) (68 км)
Погода в Буденновске (Ставропольский край, Россия) (69 км)
Погода в Дивном (Ставропольский край, Россия) (88 км)
Погода в Светлограде (Ставропольский край, Россия) (106 км)
Погода в Элисте (Калмыкия, Россия) (108 км)
Погода в Зеленокумске (Ставропольский край, Россия) (111 км)
Погода в Александровском (Ставропольский край, Россия) (121 км)
Погода в Яшкуле (Калмыкия, Россия) (124 км)
Погода в Ремонтном (Ростовская область, Россия) (136 км)

Пояснения к столбцам:

Ветер - указаны скорость ветра в м/с - средняя за 10 мин, порывы в срок и между сроками (в фигурных скобках) и направление, откуда дует ветер: С - северный, СВ - северо-восточный, В - восточный, ЮВ - юго-восточный, Ю - южный, ЮЗ - юго-западный, З - западный, СЗ - северо-западный.
Видимость - горизонтальная дальность видимости в метрах или километрах. При видимости от 1 до 10 км при отсутствии осадков обычно наблюдается дымка, при ухудшении видимости до 1 км и менее - туман. В сухую погоду видимость может ухудшаться дымом, пылью или мглою.
Явления - указаны атмосферные явления, наблюдавшиеся в срок или в последний час перед сроком; фигурными скобками обозначены явления, наблюдавшиеся между сроками (за 1-3 часа до срока); квадратными скобками обозначены град или гололедные отложения с указанием их диаметра в мм.
Облачность - указаны через наклонную черту общая и нижняя облачность в баллах и высота нижней границы облаков в метрах; квадратными скобками обозначены формы облаков: Ci - перистые, Cs - перисто-слоистые, Cc - перисто-кучевые, Ac - высококучевые, As - высокослоистые, Sc - слоисто-кучевые, Ns - слоисто-дождевые, Cu - кучевые, Cb - кучево-дождевые. Подробнее классификацию облаков см. в Атласе облаков (PDF).
T - Температура воздуха - температура, измеренная на высоте 2 м над землей.
Td - Температура точки росы - температура, при понижении до которой содержащийся в воздухе водяной пар достигнет насыщения.
f - Относительная влажность воздуха - влажноcть воздуха, измеренная на высоте 2 м над землей.
Te - Эффективная температура - температура, которую ощущает одетый по сезону человек в тени. Характеристика душности погоды. При расчете учитывается влияние влажности воздуха и скорости ветра на теплоощущения человека.
Tes - Эффективная температура на солнце - температура, которую ощущает человек, с поправкой на солнечный нагрев. Характеристика знойности погоды. Зависит от высоты солнца над горизонтом, облачности и скорости ветра. Ночью, в пасмурную погоду, а также при ветре 12 м/с и более поправка равна нулю.
P - Атмосферное давление - приведенное к уровню моря атмосферное давление.
Po - Атмосферное давление - измеренное на уровне метеостанции атмосферное давление.
Tmin - Минимальная температура - минимум температуры воздуха на высоте 2 м над землей.
Tmax - Максимальная температура - максимум температуры воздуха на высоте 2 м над землей.
R - Количество осадков - Количество выпавших осадков за период времени, мм. При наведении курсора мыши на число - период времени, за который выпало указанное количество осадков.
R24 - Количество осадков - Количество выпавших осадков за 24 часа, мм.
S - Снежный покров - Высота снежного покрова, см. При наведении курсора мыши на число - состояние снежного покрова и степень покрытия местности в баллах.